Wind_Gust
11 10 14 13 13 12 13 14 13 14 12 12 13 11 12 9 6 7 6 6 6 7 6 6 7 7 8 8 7 8 8 7 7 7 8 9 8 8 10 8 7 7
12 9 12 12 11 9 11 13 14 15 15 14 14 13 10 9 7 9 7 6 5 5 5 6 7 8 8 9 8 10 7 7 6 5 9 7 5 8 8 7 6 6
14 11 12 15 16 13 14 12 12 12 15 15 14 14 13 10 11 9 10 9 8 5 5 6 7 6 7 7 8 8 8 7 7 5 8 6 5 7 5 6 6 5
14 15 15 15 16 15 13 14 12 10 9 11 13 14 14 12 12 12 10 10 9 7 6 6 7 6 6 7 7 7 6 6 7 7 7 5 6 7 6 7 6 5
13 14 15 17 17 16 14 15 15 13 13 14 11 11 12 11 11 10 9 8 8 6 5 5 5 7 6 6 6 6 5 7 5 7 7 6 6 7 5 7 7 6
14 16 18 19 19 17 17 18 17 16 15 11 15 13 14 15 14 14 13 12 10 10 7 6 5 4 6 7 6 6 6 6 4 5 5 6 5 5 6 6 6 7
17 17 20 20 18 18 20 19 18 18 18 19 15 16 17 17 17 16 15 14 12 11 10 8 8 6 6 7 7 5 5 7 5 5 6 3 4 3 2 4 4 4
16 18 21 20 19 18 19 19 16 18 17 15 17 15 15 15 15 15 14 14 13 12 11 10 8 8 7 8 8 7 5 6 7 6 6 6 3 5 3 3 4 3
14 17 16 17 18 14 14 14 14 14 16 19 17 15 13 15 15 14 15 15 14 14 12 11 10 9 8 9 9 10 9 7 7 7 7 7 6 6 6 5 5 4
17 23 23 15 13 14 15 13 14 15 16 17 16 16 17 12 10 13 15 16 17 15 14 13 11 10 9 10 10 10 10 9 7 7 6 7 8 7 6 6 6 4
12 21 27 28 28 29 17 14 13 15 14 16 15 13 12 12 10 6 9 11 14 15 14 14 14 14 13 11 10 9 11 11 9 8 8 8 9 9 8 7 6 7
14 15 16 19 23 27 26 25 22 14 13 13 15 15 12 12 12 10 10 9 9 10 10 11 12 14 15 15 14 12 11 11 11 10 10 10 9 9 9 8 8 7
17 11 12 16 18 14 12 20 22 25 24 13 9 13 14 14 12 12 11 12 11 10 11 11 11 10 12 13 13 13 13 12 11 11 11 10 9 10 10 9 9 8
7 10 9 9 14 15 17 16 15 18 16 18 20 12 8 10 12 12 12 11 11 10 7 8 10 12 12 11 11 14 13 12 13 13 12 10 8 9 9 10 10 9
10 10 8 8 13 13 13 15 19 20 19 14 12 15 16 7 7 6 7 7 7 8 8 7 8 11 11 11 12 11 12 14 14 14 14 13 10 9 8 9 9 10
16 18 17 10 11 13 12 15 15 14 13 14 16 17 13 5 3 4 5 5 4 2 1 2 5 5 7 14 14 16 14 14 11 13 14 13 13 11 8 9 11 10
12 12 13 11 12 7 9 10 11 11 10 9 9 8 6 5 4 5 5 5 5 5 5 6 8 9 10 11 14 16 14 13 14 14 13 14 14 15 14 13 9 8
13 12 11 9 7 8 9 9 10 10 9 7 4 4 5 2 3 6 5 3 3 4 4 7 7 7 11 11 12 14 13 15 13 14 14 14 14 16 16 14 11 9
6 7 7 6 5 5 3 2 1 1 2 3 4 6 2 3 8 5 6 4 2 3 5 6 5 5 6 5 7 9 11 9 10 11 13 13 15 17 14 12 11 11
6 7 6 4 3 4 5 4 3 4 5 6 6 4 6 7 5 7 6 5 5 6 4 2 3 5 2 3 5 9 10 8 6 4 3 3 2 4 5 7 8 10
6 6 7 6 5 5 4 3 2 2 2 3 6 7 7 9 9 8 8 5 6 6 6 3 5 7 4 4 5 8 9 8 6 9 10 8 7 7 7 7 7 7
6 6 6 5 4 3 2 1 2 2 2 4 2 2 1 2 2 3 5 5 2 3 6 4 4 8 5 7 9 10 11 10 10 11 11 11 10 8 9 7 8 11
6 8 7 6 5 4 2 2 2 2 2 2 2 5 4 3 3 3 4 7 7 5 6 5 3 5 5 9 11 13 11 10 11 11 10 10 9 8 8 7 5 4
9 8 8 7 7 7 6 5 3 3 3 2 1 2 4 5 3 4 3 7 10 7 8 9 3 2 5 8 10 10 10 12 10 12 10 8 6 6 8 9 10 9
7 8 9 8 9 8 8 6 6 7 3 2 1 1 3 4 2 6 4 3 4 8 9 12 8 4 5 10 12 12 12 9 11 11 11 6 7 10 10 10 10 12
5 6 6 8 8 7 6 7 7 3 3 2 2 3 3 3 5 4 6 4 4 6 8 9 12 5 4 10 11 12 11 11 9 12 10 7 6 9 10 9 10 11
Wind_Speed
7 6 8 8 7 7 7 7 6 6 5 6 7 6 7 5 4 5 4 4 4 4 4 4 4 4 4 4 4 4 4 4 4 4 5 5 5 5 6 5 5 5
8 4 5 7 7 6 6 7 7 7 7 7 7 7 5 5 4 6 5 4 4 4 4 4 4 4 4 5 4 5 4 4 4 3 5 5 4 5 5 5 4 4
9 7 6 8 9 8 8 7 7 6 7 7 7 7 7 5 7 6 6 6 5 4 4 4 4 4 4 4 4 4 5 4 4 3 5 4 4 5 4 4 4 4
9 10 9 9 10 10 8 8 7 6 4 5 7 8 7 6 7 7 6 6 6 4 4 4 4 4 4 4 5 5 4 4 4 4 4 3 4 4 4 4 4 3
9 9 9 9 10 10 9 9 9 7 7 8 6 5 6 6 6 6 6 5 5 4 4 4 4 4 4 4 4 4 3 4 4 4 4 4 4 4 3 4 5 4
9 9 10 10 10 10 10 11 11 10 9 7 9 7 8 9 9 8 8 8 6 6 5 4 4 4 4 5 4 4 4 3 2 3 4 4 3 2 3 3 4 4
10 9 11 11 11 11 11 11 10 10 10 10 7 8 7 8 9 9 9 8 8 6 6 5 5 4 4 4 4 4 4 4 3 3 4 2 3 2 1 3 2 2
4 4 8 10 11 10 11 11 10 10 10 7 10 8 7 8 7 7 7 9 8 8 7 6 5 5 5 5 5 4 4 3 5 4 4 4 2 4 2 2 3 2
5 3 3 9 10 8 9 8 7 8 8 10 10 9 8 8 9 8 9 9 8 8 7 6 6 5 5 5 5 6 6 4 5 5 5 4 4 4 4 3 3 3
6 8 10 10 4 6 8 6 7 8 9 9 10 8 9 7 7 8 7 7 8 8 9 8 7 6 5 5 6 6 6 6 5 4 4 4 5 4 4 4 4 3
6 9 9 9 10 12 6 1 7 8 7 9 8 8 7 7 5 4 6 7 7 7 7 7 8 8 8 7 6 6 6 6 6 5 5 5 5 5 5 5 4 4
1 5 7 7 9 8 4 6 10 3 4 7 8 8 7 7 8 6 6 6 5 6 6 7 6 6 7 8 8 7 6 6 6 6 6 6 5 5 6 5 5 5
5 4 2 4 7 7 7 5 3 5 10 6 1 6 8 7 7 7 6 7 7 6 7 7 6 5 5 5 5 6 7 6 6 6 6 6 6 6 6 6 6 5
4 4 2 2 1 3 4 7 6 1 3 5 7 8 2 5 7 7 6 6 7 6 5 5 6 7 7 7 5 7 7 6 7 7 6 6 5 6 6 6 6 6
1 2 1 1 6 6 5 3 4 9 10 8 6 7 8 5 4 4 4 4 3 3 4 3 4 6 6 7 7 6 5 7 7 7 7 7 6 5 5 6 6 6
6 5 5 4 4 7 8 9 9 6 6 7 9 10 9 4 2 3 3 3 2 1 0 1 3 3 4 9 9 7 7 7 6 7 7 6 7 6 5 5 7 6
3 3 3 4 6 4 4 4 5 5 5 6 6 6 5 4 4 4 4 3 4 3 3 4 4 4 9 10 11 13 9 8 8 8 8 8 8 8 8 7 6 5
7 7 7 6 5 5 4 4 5 6 6 5 3 3 4 2 2 4 2 2 2 3 3 3 4 4 6 7 8 11 11 8 8 8 8 8 8 8 8 8 6 5
4 5 5 4 4 4 3 2 1 0 1 1 3 4 2 2 5 4 4 1 0 0 2 3 2 3 2 2 4 6 9 7 5 6 7 7 8 9 8 6 6 6
4 5 4 3 2 2 2 1 0 1 2 3 3 3 3 4 4 4 3 1 2 4 3 0 1 3 1 3 4 7 9 7 4 2 1 1 1 1 2 4 5 5
4 4 5 4 4 4 3 2 1 1 1 2 3 4 5 5 6 5 4 1 3 3 2 1 3 6 4 3 4 7 6 6 2 3 4 4 4 4 4 4 4 4
4 5 5 4 3 2 2 0 0 1 1 3 1 0 0 1 1 2 3 3 2 2 3 2 2 7 4 2 6 8 9 5 5 5 5 5 5 5 5 5 5 6
4 5 5 5 4 3 1 1 1 1 1 1 1 3 2 1 1 0 3 5 4 3 3 2 2 4 3 6 9 11 8 6 6 6 5 6 6 5 4 4 3 2
5 5 5 5 5 5 4 3 1 1 2 0 0 1 3 3 1 1 1 3 4 4 4 4 2 1 4 7 9 9 8 7 6 6 5 5 4 4 5 6 5 6
4 5 5 5 5 5 5 4 4 4 2 1 1 1 1 1 1 2 2 1 1 4 5 6 4 2 4 8 10 10 8 5 6 6 6 4 5 6 6 5 5 7
4 4 4 5 6 5 4 5 4 2 2 2 0 2 2 2 3 2 3 2 2 3 3 3 5 3 2 7 9 10 9 6 6 7 6 4 4 5 6 5 6 5
Wind_Direction
149 170 168 168 168 172 172 171 180 169 169 159 151 166 161 169 151 134 137 124 122 122 130 128 121 112 105 96 92 87 90 96 89 85 83 86 80 84 77 79 75 97
149 179 192 164 161 173 183 175 179 177 178 171 166 163 169 146 163 142 141 124 110 118 115 112 119 123 123 118 113 108 102 99 94 98 93 86 93 84 77 81 97 93
157 176 199 178 173 182 183 180 182 193 181 182 168 166 167 161 158 156 149 143 136 131 108 110 113 126 127 127 127 122 121 114 120 121 114 119 106 88 89 93 82 96
163 175 192 197 176 178 184 177 187 196 192 175 184 177 166 167 158 155 151 146 143 149 143 119 125 133 136 138 130 133 141 145 157 138 118 121 128 124 119 106 105 84
167 175 189 201 187 175 173 184 187 189 188 193 185 175 159 154 154 150 147 145 145 150 147 134 129 137 135 135 131 127 131 136 156 139 132 141 162 132 158 118 115 114
166 182 190 199 193 176 177 188 188 186 190 181 192 184 175 167 164 163 158 157 161 157 162 150 140 151 145 144 140 145 144 144 182 117 116 141 179 159 140 123 130 133
181 180 191 198 196 183 180 190 189 187 187 189 175 192 181 176 171 166 162 162 161 166 169 173 159 162 149 147 150 155 167 164 168 144 144 178 157 154 116 140 122 136
183 190 193 202 196 190 188 187 190 187 187 175 184 190 183 182 179 171 167 163 165 172 177 178 171 171 162 153 156 161 184 182 167 163 168 189 183 177 199 167 134 114
34 358 274 212 199 192 192 179 182 186 182 182 187 186 190 184 180 177 174 172 171 175 175 178 182 182 177 170 173 173 182 194 188 177 175 184 194 208 195 173 146 141
74 63 22 320 258 186 173 175 172 179 183 186 185 183 185 191 183 178 173 178 180 177 177 180 184 188 187 186 184 182 187 193 194 188 186 184 190 204 202 179 184 157
94 94 86 70 33 3 345 188 171 169 181 182 174 181 184 174 182 184 179 178 185 190 187 187 189 187 187 193 194 192 192 193 194 193 194 192 194 196 195 190 182 184
145 92 105 118 126 123 95 16 344 321 196 177 172 168 169 174 172 177 183 187 190 193 193 196 198 198 197 197 195 193 197 198 196 197 199 196 194 193 193 193 184 197
99 102 110 124 129 130 123 109 91 1 336 330 302 160 157 162 171 170 178 179 189 186 195 194 195 201 211 217 210 200 201 200 202 204 205 201 199 193 191 188 188 190
122 78 75 9 26 107 137 140 125 66 325 325 330 322 278 170 169 172 181 184 186 181 181 178 189 200 209 211 210 212 205 208 205 205 206 208 204 200 187 189 189 188
123 115 167 159 198 165 150 140 187 179 182 190 218 242 261 244 201 189 180 210 219 189 185 181 189 208 212 198 196 211 220 219 211 207 206 206 206 200 194 189 188 185
181 187 178 174 190 186 193 183 187 190 185 193 202 220 230 223 176 183 181 187 191 223 110 185 214 228 226 210 198 200 211 222 215 213 210 207 204 199 198 196 189 184
172 184 161 192 203 194 188 186 186 181 187 200 211 223 227 230 208 207 200 174 173 177 199 214 219 220 220 211 211 211 209 213 214 212 205 206 202 192 194 196 197 178
174 171 172 176 171 177 167 172 167 173 182 187 196 234 246 243 248 247 241 204 177 177 201 231 248 265 269 262 234 222 212 208 209 208 206 202 197 195 196 190 171 153
156 161 160 166 173 181 165 141 124 90 307 290 246 229 189 220 240 239 249 232 101 34 248 239 236 26 6 283 239 225 236 232 217 212 203 203 199 202 194 169 154 148
155 144 141 151 121 110 94 80 82 244 251 246 248 277 249 244 249 252 267 209 188 219 219 9 72 338 302 197 217 215 212 209 228 203 186 165 143 97 103 125 135 137
129 129 135 147 147 122 106 108 149 201 217 218 202 212 204 215 225 230 238 174 189 165 103 30 339 327 292 189 185 194 198 189 139 104 109 103 102 110 109 126 136 139
131 137 141 139 103 86 88 66 0 0 310 325 352 45 244 185 132 166 139 129 150 125 118 63 344 358 342 82 107 114 116 106 104 104 99 96 90 93 94 95 101 100
169 159 161 151 135 131 160 206 258 296 308 315 12 351 355 307 220 179 148 153 160 143 108 97 34 19 80 119 116 109 95 99 100 99 100 98 102 104 102 81 62 98
186 168 170 165 152 171 193 226 250 294 280 184 250 329 322 293 357 72 124 165 157 151 152 133 104 55 102 111 112 108 114 114 114 105 102 107 89 66 79 80 49 58
192 175 172 165 172 187 178 183 196 207 217 147 137 142 256 357 52 104 89 63 112 144 149 132 137 140 121 115 113 118 113 115 112 107 102 90 93 74 56 58 54 49
138 157 170 168 181 183 179 187 194 174 208 218 107 91 83 75 94 84 91 69 83 122 106 116 133 125 99 113 111 109 112 109 109 112 113 103 86 98 83 54 59 68